Vertical_Velocity
-1 0 1 1 1 1 1 1 1 1 1 1 0 -0 -1 -2 -2 -2 -2 -1 -1 -2 -2 2 1 -1 2 2 -3 3 0 1 -2 -1 -1 -1 -0 0 -0 0 2 1 -1 1 -1 -1 -1
-2 -0 0 1 -0 -1 -1 -1 -2 -1 -0 1 0 0 -1 -0 0 0 1 1 0 -1 -0 -3 1 1 1 -1 -1 1 2 1 1 0 -3 -4 2 0 -1 0 -1 -1 0 -1 -1 -2 -1
-2 -1 -0 -0 -1 -0 -1 -2 -1 -0 -2 -3 -2 -2 -1 -1 -1 -0 -0 -1 -2 1 1 3 -1 -1 -0 -14 -2 2 -0 3 4 3 3 -1 -4 -1 2 -1 3 2 -2 -1 0 -2 -2
0 0 -2 -3 -1 -2 -2 -0 -1 0 -1 -1 -2 -2 -4 -4 -3 -1 -1 -1 0 0 2 1 -0 -1 -11 -3 -1 1 -0 -2 -1 2 4 5 4 -2 -2 -1 -1 -0 1 0 -3 1 -2
0 -1 -0 -0 -1 -1 0 -2 -3 -3 -3 -3 -0 -1 -1 -2 -2 -4 -3 -5 -3 -2 -3 -0 3 3 -7 1 1 1 2 -1 -0 -0 -0 -0 3 0 4 -2 -3 -0 -2 1 -4 -1 -1
-0 0 1 1 -0 -1 -2 -1 0 0 -1 -1 -1 -2 0 -1 -1 -4 -2 -3 -3 2 -3 0 3 5 -0 0 1 2 1 1 0 0 0 0 2 -1 0 -2 -7 -3 1 -0 -1 -4 2
-1 -2 -2 -3 -3 -3 -2 -2 -3 -1 -1 -0 -0 -2 -1 -1 -1 -0 -10 -13 -18 -2 1 -3 8 3 3 2 0 -2 -2 1 2 4 -0 -0 -3 -4 -7 -4 -2 -1 1 0 -3 -2 1
-1 -1 -2 -2 -2 -2 -2 -2 -5 -5 -6 -5 -4 -4 -1 -1 -4 -6 3 -11 -2 -1 -19 -5 -2 -1 6 2 1 3 2 -2 2 -1 1 -0 -5 -7 -0 1 2 2 2 -8 -6 -0 1
-1 -1 -0 -0 -0 -0 -1 -1 -1 -1 -3 -3 -6 -7 -5 -4 0 -1 -3 -1 -0 2 1 -19 4 4 4 2 -2 -0 1 1 -0 2 -0 -3 -12 0 2 -0 5 -2 -0 -2 -1 -1 -1
-1 -0 -0 -0 0 0 -1 -3 -2 -0 -0 0 -1 -3 -4 -8 -1 -4 -2 1 2 1 -1 -13 -0 -0 -1 -1 -1 2 7 2 -0 -2 -1 -3 -8 1 2 -1 -1 4 -3 1 1 1 -4
0 1 -1 -2 -1 0 -0 1 1 -2 0 2 -5 -2 -0 0 -4 -2 -1 1 0 2 -5 -10 1 -3 -2 -2 -2 0 -2 1 -0 -1 -1 -22 0 1 3 -17 -2 -14 0 -1 -0 1 2
1 1 0 -0 -1 -2 -1 -0 -1 1 -5 -2 0 2 -0 1 -2 -1 -2 -4 2 -14 -19 -0 -1 -0 -1 1 0 1 0 -0 1 2 1 -6 0 1 -6 -0 -0 -1 -0 -0 -1 -2 2
-2 -2 -1 -1 -1 -1 -0 0 0 -0 -3 -3 -6 -5 -1 3 0 3 1 2 -12 -5 -16 -2 0 0 -0 -0 0 1 0 0 -3 -2 -1 -3 -2 -0 -2 1 -1 1 -4 -4 -4 -2 -11
-3 -2 -2 -1 -2 -2 1 0 2 -1 -0 -3 -6 -5 -3 2 2 -1 1 -8 2 -6 -1 -1 -1 -0 -1 -0 -3 2 1 -1 -1 1 0 -0 -16 -2 -1 -5 -8 -2 -6 -6 -3 -2 -5
-1 -3 -3 -3 -2 -2 -2 -1 0 -1 -2 -2 -3 -4 -3 4 2 2 2 0 -10 -1 1 -0 -8 0 -2 -1 1 -2 -0 -1 -1 -2 -3 1 -4 -0 -1 -0 -7 -5 -1 -12 3 -1 3
-0 0 1 -1 -1 -4 -2 -3 -3 -5 -3 -3 -4 -6 0 1 2 7 3 -5 -1 1 -0 -2 0 3 0 -1 -3 -3 -0 -1 -1 -1 1 -5 -4 2 -1 -2 -2 -6 -3 -5 -1 -2 -1
-2 -1 0 1 0 3 3 4 3 -2 -2 -3 -5 -0 -2 1 -0 1 -0 -4 -1 0 -3 0 0 0 0 -0 1 -0 -4 -9 -1 -2 -0 1 4 -6 -2 -2 -4 -4 0 1 -2 -1 0
-4 -5 -5 -0 -1 -2 -0 1 -1 -3 -2 -2 0 -1 0 -1 1 0 -0 -3 -0 -2 -0 -0 -0 0 -0 -0 0 1 -1 -1 1 0 -1 0 2 0 -10 -8 -2 -1 -2 -1 8 -13 -3
1 -1 1 -1 0 -2 -1 -1 1 3 -1 -2 -0 -2 0 3 -1 -1 -3 -3 4 3 -1 0 0 -0 -0 -1 -2 1 -0 2 1 -2 2 1 -3 -1 -11 -6 -3 1 -0 0 1 1 -9
2 1 1 -1 2 2 2 3 1 4 2 0 2 -2 -2 1 2 2 0 -3 -2 -1 -0 0 -1 1 2 1 1 -3 -0 -2 3 0 4 -2 0 1 0 -8 5 -0 -3 -2 6 4 -6
0 0 -3 -3 -4 -5 -2 1 2 -1 5 4 1 -5 -0 -1 -1 0 1 1 -0 -1 0 1 -1 1 -0 1 0 -0 -0 -1 -4 -5 0 -3 1 5 -5 -2 4 0 1 -3 7 -9 15
-1 1 0 2 -0 0 0 2 1 -2 9 8 0 -0 4 -0 -0 2 -0 -2 1 -8 3 -2 1 -2 1 1 -3 -2 2 0 -1 -0 0 1 -5 4 -7 -2 3 2 -2 0 -0 -4 2
1 4 0 -0 1 2 2 -0 0 4 11 9 -4 -6 11 -4 0 -0 -4 -4 -4 1 -6 -1 2 1 2 -5 1 -1 -1 -0 -2 2 -1 2 2 3 -15 1 0 4 -5 -1 -3 -0 4
4 3 1 1 -1 0 -1 2 3 -3 8 11 -3 4 3 -3 2 -3 1 2 0 -2 1 -4 2 1 -7 -2 -4 -1 5 3 6 -5 2 1 4 2 -4 -0 6 -6 0 -0 -1 2 -1
1 5 5 2 0 2 -4 -0 -1 3 3 10 4 18 0 -0 -3 2 2 0 -0 -4 2 1 -1 1 4 -1 -1 -4 -7 -7 -4 -0 1 2 1 0 0 -0 -10 -3 -1 -0 2 -2 3
2 2 -0 -1 1 5 3 5 -1 -2 0 8 -2 6 16 2 -5 -4 1 1 0 -1 -2 -1 1 -2 3 -0 -1 -0 -2 -2 -6 -1 -0 -0 1 5 -1 4 1 4 -4 1 2 -2 2
3 -4 2 -0 -4 2 3 6 -3 -0 2 16 -3 4 19 4 -6 0 -3 -2 -1 0 -0 1 -0 -0 0 0 1 -1 -3 -4 -2 -0 -0 0 1 -1 -2 -0 3 2 -1 3 -3 -2 -1
-2 2 -5 -1 -3 2 6 2 3 1 2 22 -12 1 11 2 -6 0 1 1 0 1 1 -0 1 6 2 2 0 -2 1 -2 -3 -3 -2 -2 1 1 -2 1 1 2 -5 -9 2 -8 5
1 3 6 2 2 6 2 -3 -0 -3 1 25 4 1 3 18 -1 -1 -0 -1 2 -1 5 8 -4 -2 -3 -1 -1 -1 -1 -2 -2 -3 -1 1 3 3 2 3 3 4 4 3 7 6 -2
Height
1572 1570 1568 1567 1565 1563 1560 1558 1556 1553 1551 1548 1546 1543 1540 1537 1535 1532 1529 1526 1524 1521 1519 1517 1515 1514 1512 1509 1504 1502 1502 1502 1502 1503 1504 1504 1506 1507 1506 1505 1504 1504 1503 1502 1501 1502 1502
1573 1571 1570 1568 1566 1563 1561 1559 1556 1553 1550 1547 1545 1542 1539 1536 1533 1530 1527 1524 1521 1518 1516 1514 1513 1511 1510 1509 1501 1501 1500 1501 1500 1500 1500 1502 1503 1503 1504 1503 1503 1501 1500 1501 1500 1500 1500
1574 1572 1570 1568 1566 1564 1561 1559 1556 1553 1551 1548 1545 1541 1538 1535 1531 1528 1524 1520 1518 1515 1513 1511 1509 1507 1506 1501 1498 1498 1498 1499 1498 1498 1498 1498 1500 1502 1502 1501 1501 1500 1501 1498 1495 1496 1498
1574 1572 1570 1568 1566 1563 1561 1558 1556 1553 1550 1547 1544 1541 1538 1534 1530 1526 1522 1517 1513 1510 1508 1506 1504 1503 1498 1494 1494 1494 1494 1495 1496 1496 1497 1497 1497 1498 1499 1501 1501 1503 1503 1505 1490 1492 1494
1573 1571 1569 1567 1565 1562 1560 1558 1555 1552 1549 1546 1543 1540 1537 1533 1528 1524 1520 1515 1511 1507 1504 1502 1502 1501 1494 1492 1491 1490 1491 1492 1492 1493 1495 1496 1497 1496 1498 1501 1509 1505 1510 1504 1493 1488 1490
1572 1570 1568 1565 1563 1561 1558 1556 1553 1550 1547 1543 1540 1538 1535 1531 1527 1522 1517 1513 1508 1504 1502 1501 1500 1503 1494 1491 1490 1490 1490 1491 1492 1492 1494 1495 1495 1497 1497 1504 1514 1504 1503 1495 1492 1486 1490
1571 1569 1566 1564 1561 1559 1557 1554 1551 1548 1545 1541 1538 1535 1532 1529 1525 1520 1516 1512 1510 1506 1501 1498 1496 1492 1491 1489 1489 1488 1490 1490 1491 1492 1493 1491 1498 1495 1486 1486 1484 1485 1489 1490 1480 1477 1485
1568 1566 1564 1562 1559 1556 1554 1551 1548 1545 1542 1539 1536 1533 1530 1527 1524 1521 1519 1515 1517 1518 1499 1490 1486 1485 1487 1487 1487 1486 1487 1489 1489 1491 1489 1492 1490 1477 1480 1483 1485 1486 1487 1482 1474 1468 1475
1565 1562 1560 1557 1555 1552 1550 1547 1545 1542 1539 1536 1533 1531 1529 1527 1523 1521 1518 1518 1516 1514 1511 1482 1480 1481 1482 1485 1485 1485 1487 1487 1488 1487 1487 1491 1473 1468 1477 1480 1481 1481 1483 1477 1476 1468 1468
1561 1558 1555 1552 1550 1547 1545 1542 1540 1538 1535 1533 1531 1529 1526 1524 1524 1521 1520 1518 1515 1512 1513 1489 1482 1483 1483 1483 1486 1485 1486 1488 1485 1485 1485 1484 1470 1471 1474 1472 1474 1482 1468 1470 1471 1474 1483
1557 1554 1551 1548 1546 1543 1540 1537 1535 1533 1531 1529 1527 1526 1524 1521 1521 1520 1521 1518 1515 1515 1526 1482 1483 1483 1483 1484 1485 1484 1484 1485 1486 1484 1483 1478 1468 1470 1472 1461 1466 1464 1460 1465 1467 1474 1475
1554 1552 1549 1546 1544 1541 1538 1535 1532 1529 1527 1525 1523 1521 1520 1519 1518 1518 1516 1515 1515 1521 1522 1481 1481 1482 1482 1482 1482 1481 1482 1483 1483 1482 1478 1474 1467 1467 1465 1462 1464 1462 1462 1463 1467 1477 1484
1550 1548 1546 1543 1541 1539 1537 1534 1530 1527 1524 1522 1520 1519 1517 1516 1516 1515 1514 1514 1524 1525 1484 1482 1482 1482 1481 1481 1481 1481 1484 1486 1486 1487 1481 1471 1463 1457 1459 1464 1465 1465 1474 1489 1483 1491 1462
1546 1544 1542 1540 1538 1537 1535 1532 1528 1525 1522 1519 1516 1515 1513 1512 1512 1512 1513 1515 1520 1499 1489 1482 1485 1480 1481 1476 1476 1479 1481 1485 1479 1480 1484 1484 1472 1458 1457 1460 1462 1466 1469 1485 1467 1468 1456
1542 1539 1537 1536 1534 1533 1531 1529 1526 1523 1520 1516 1513 1510 1508 1507 1509 1509 1512 1521 1509 1497 1490 1491 1485 1483 1481 1477 1479 1476 1480 1479 1474 1475 1481 1477 1465 1453 1453 1453 1458 1463 1469 1456 1465 1459 1461
1538 1536 1534 1531 1529 1528 1526 1524 1522 1521 1518 1516 1511 1508 1506 1505 1508 1508 1508 1506 1498 1490 1490 1490 1495 1489 1486 1488 1489 1486 1481 1475 1474 1476 1476 1472 1468 1456 1458 1455 1455 1458 1460 1467 1469 1466 1450
1535 1533 1531 1529 1527 1525 1522 1521 1518 1517 1516 1514 1511 1508 1505 1504 1505 1508 1506 1504 1497 1493 1492 1492 1490 1489 1490 1490 1486 1487 1483 1477 1476 1474 1473 1474 1472 1460 1458 1460 1460 1460 1461 1459 1459 1459 1441
1532 1529 1527 1525 1523 1521 1519 1518 1516 1514 1514 1511 1510 1509 1503 1503 1506 1502 1498 1494 1494 1492 1491 1491 1489 1488 1489 1487 1487 1485 1481 1478 1478 1477 1479 1480 1475 1463 1457 1454 1450 1448 1445 1444 1448 1445 1439
1529 1527 1524 1521 1519 1517 1516 1515 1514 1512 1511 1511 1508 1506 1502 1502 1505 1503 1497 1494 1492 1489 1488 1486 1484 1483 1482 1486 1489 1483 1480 1477 1477 1478 1481 1482 1478 1468 1453 1449 1450 1447 1447 1449 1450 1444 1426
1524 1523 1521 1519 1516 1514 1512 1511 1510 1510 1509 1510 1509 1505 1501 1501 1501 1501 1500 1497 1493 1486 1486 1487 1485 1485 1485 1485 1482 1483 1480 1476 1475 1478 1479 1484 1480 1475 1463 1455 1455 1455 1447 1444 1448 1449 1437
1517 1516 1514 1513 1512 1510 1509 1507 1507 1507 1507 1508 1505 1500 1497 1502 1499 1499 1499 1496 1495 1490 1484 1484 1484 1485 1485 1485 1482 1480 1475 1476 1475 1474 1473 1476 1472 1472 1459 1455 1456 1452 1446 1441 1443 1432 1430
1511 1510 1508 1507 1505 1504 1503 1502 1502 1503 1503 1503 1502 1499 1496 1494 1495 1495 1496 1492 1490 1488 1488 1482 1482 1481 1483 1481 1481 1478 1478 1475 1474 1470 1470 1472 1463 1463 1453 1449 1445 1442 1436 1435 1429 1420 1414
1505 1504 1502 1502 1500 1498 1497 1496 1496 1497 1497 1495 1496 1496 1495 1491 1489 1491 1490 1486 1486 1486 1483 1481 1478 1478 1478 1476 1474 1477 1476 1471 1468 1467 1468 1470 1465 1462 1447 1444 1445 1438 1431 1425 1420 1417 1433
1498 1497 1496 1495 1493 1492 1492 1491 1489 1490 1491 1491 1490 1491 1490 1484 1485 1485 1483 1482 1481 1482 1482 1478 1477 1475 1474 1472 1469 1468 1466 1462 1459 1456 1464 1460 1462 1460 1447 1447 1440 1434 1443 1442 1442 1444 1442
1489 1488 1488 1488 1486 1485 1484 1484 1484 1483 1485 1484 1484 1484 1482 1477 1476 1478 1478 1476 1474 1474 1476 1474 1472 1471 1470 1470 1468 1471 1466 1461 1456 1453 1455 1457 1459 1453 1451 1457 1429 1434 1445 1450 1448 1444 1445
1480 1478 1478 1477 1477 1476 1476 1476 1475 1475 1477 1477 1476 1479 1475 1472 1467 1471 1473 1474 1473 1470 1469 1468 1468 1468 1470 1468 1469 1476 1471 1462 1459 1455 1457 1457 1457 1456 1464 1441 1428 1457 1453 1449 1448 1442 1445
1470 1470 1470 1469 1468 1468 1468 1466 1467 1467 1469 1469 1466 1470 1470 1465 1464 1467 1468 1468 1469 1468 1465 1464 1464 1466 1467 1468 1464 1468 1465 1459 1455 1458 1456 1463 1460 1450 1447 1437 1446 1460 1450 1442 1438 1450 1447
1463 1462 1460 1459 1459 1458 1459 1459 1458 1458 1459 1461 1458 1463 1464 1458 1459 1460 1462 1463 1462 1463 1462 1461 1463 1462 1466 1467 1465 1461 1454 1452 1458 1456 1454 1454 1451 1443 1446 1438 1437 1460 1451 1456 1464 1455 1452
1453 1454 1453 1451 1450 1449 1450 1450 1450 1450 1450 1451 1451 1453 1456 1455 1454 1455 1456 1457 1457 1458 1458 1453 1449 1453 1455 1458 1463 1462 1458 1459 1460 1457 1453 1454 1467 1460 1463 1465 1472 1470 1469 1467 1462 1458 1452